Wind_Speed
113 118 121 124 125 126 126 125 124 124 123 121 116 113 110 110 109 109 109 109 109 108 107 108 110 111 112
122 124 126 130 126 120 116 111 107 105 106 104 101 100 102 103 102 101 101 100 101 103 103 101 101 101 101
127 123 116 112 106 103 101 100 98 97 96 93 90 90 92 93 91 91 90 90 89 89 91 90 91 91 91
115 108 104 100 97 93 93 92 87 87 82 79 79 80 78 76 78 80 80 78 79 80 81 83 83 82 82
103 101 96 91 88 85 80 79 77 72 72 75 70 69 68 70 71 70 71 72 71 72 73 74 75 76 77
96 92 89 82 79 75 71 70 70 62 68 69 61 64 62 62 61 63 62 62 62 61 62 64 67 69 69
88 86 82 77 73 70 65 62 59 59 61 56 55 54 54 54 54 52 51 52 52 51 52 53 56 59 60
82 78 74 70 66 62 60 55 49 50 53 48 48 45 44 44 42 41 43 42 43 43 44 44 47 50 53
75 72 67 63 60 59 54 51 45 43 43 41 39 35 35 36 34 36 35 36 37 37 37 38 40 44 47
66 63 60 57 53 51 50 46 41 38 36 36 34 33 28 32 28 29 28 29 29 30 32 34 35 37 40
61 57 53 50 47 44 42 42 38 33 33 30 27 27 24 26 21 21 21 20 21 23 27 29 30 32 34
55 50 47 44 42 40 38 36 33 32 29 25 22 22 22 20 20 17 15 14 14 17 21 24 26 28 29
47 45 42 38 37 35 33 32 30 25 23 21 18 17 19 19 17 13 11 10 10 12 15 18 20 23 26
42 40 37 35 33 31 29 24 24 22 20 20 17 15 15 16 15 10 7 5 5 6 9 11 15 19 22
40 38 37 34 30 27 26 23 20 19 17 17 16 14 14 13 12 7 4 1 2 4 6 10 14 20 23
39 36 32 30 26 24 23 21 18 14 13 14 14 12 11 10 10 6 4 2 4 7 8 11 14 20 25
34 32 30 26 22 20 19 19 17 14 12 11 11 10 9 9 9 5 5 5 6 11 11 14 17 21 27
Wind_Direction
295 294 292 291 290 288 286 284 283 283 282 281 280 280 280 277 275 273 271 270 269 268 265 263 261 258 257
297 296 296 294 292 290 288 287 285 283 281 282 281 281 278 275 274 272 271 269 267 265 264 264 262 260 257
301 300 297 294 292 292 290 288 286 285 283 282 280 277 275 274 273 271 270 267 266 264 263 262 260 259 256
303 302 298 297 296 293 292 290 288 287 287 284 278 275 275 275 273 270 270 269 266 264 263 262 260 259 257
304 301 301 300 298 296 294 293 290 290 288 283 283 282 278 275 274 274 270 268 267 264 262 260 259 257 254
305 304 302 302 300 299 297 294 293 291 285 285 286 283 283 280 278 276 275 273 270 266 262 259 257 254 251
307 305 306 305 304 302 300 298 296 292 289 290 286 283 281 280 278 277 273 269 265 262 258 255 252 251 247
308 308 308 307 306 305 303 300 298 293 291 292 285 285 283 280 280 277 272 270 266 262 258 253 250 246 242
311 310 310 310 309 308 306 303 301 298 296 297 294 292 289 284 283 277 277 273 270 267 263 257 251 245 239
313 312 313 312 311 309 307 308 308 305 301 299 296 294 289 287 286 284 281 278 276 272 266 260 251 244 238
315 316 314 312 310 309 309 309 308 303 302 298 295 294 292 291 293 289 288 283 275 266 259 253 245 237 232
317 316 314 312 310 310 310 308 307 306 304 300 298 295 298 302 308 306 300 287 273 264 256 249 240 231 223
316 315 314 312 311 311 312 313 312 308 306 304 304 299 303 309 314 314 309 302 277 256 247 236 229 220 209
315 314 314 313 311 311 312 311 311 312 310 309 309 305 306 309 318 327 317 299 262 242 233 218 210 198 195
316 317 315 313 311 312 314 312 314 317 319 317 318 315 308 312 329 339 351 338 216 179 187 192 178 172 175
316 316 314 312 310 313 313 313 315 324 329 326 322 319 312 318 333 351 52 98 149 139 146 163 155 160 162
314 313 312 311 311 312 314 315 321 328 347 337 332 328 324 335 336 5 76 105 148 143 137 151 147 150 155
Height
10316 10301 10286 10268 10253 10237 10223 10210 10195 10184 10172 10160 10156 10156 10158 10153 10148 10144 10142 10140 10140 10141 10146 10151 10157 10165 10179
10278 10259 10239 10217 10199 10185 10170 10162 10153 10146 10132 10127 10124 10122 10114 10107 10105 10104 10104 10105 10104 10102 10104 10113 10116 10125 10136
10221 10209 10190 10169 10160 10146 10133 10121 10114 10105 10097 10098 10094 10085 10077 10073 10071 10069 10068 10066 10070 10070 10072 10076 10081 10088 10097
10177 10163 10143 10133 10120 10113 10097 10083 10081 10070 10068 10063 10055 10050 10051 10049 10042 10036 10036 10040 10041 10041 10043 10045 10051 10057 10067
10144 10126 10113 10102 10089 10076 10071 10057 10048 10049 10037 10024 10029 10025 10022 10018 10015 10015 10012 10012 10014 10016 10017 10019 10022 10028 10035
10113 10098 10082 10076 10061 10053 10043 10034 10023 10026 10006 10001 10007 9997 9996 9993 9990 9987 9987 9987 9987 9989 9991 9993 9996 10000 10008
10088 10069 10058 10047 10036 10027 10020 10012 10006 9996 9986 9989 9983 9979 9974 9971 9968 9968 9966 9964 9965 9966 9968 9971 9973 9976 9982
10062 10049 10037 10027 10016 10007 9998 9994 9990 9980 9970 9971 9965 9964 9959 9954 9952 9951 9947 9947 9946 9946 9948 9950 9952 9956 9960
10042 10029 10018 10008 9997 9988 9983 9976 9973 9965 9958 9954 9950 9948 9944 9940 9939 9935 9935 9932 9930 9931 9932 9933 9936 9938 9943
10027 10015 10002 9993 9984 9975 9967 9962 9958 9952 9948 9943 9939 9935 9935 9929 9929 9925 9923 9921 9920 9920 9919 9920 9922 9925 9929
10009 10000 9990 9981 9974 9967 9959 9951 9947 9944 9937 9933 9931 9927 9924 9921 9920 9917 9916 9915 9913 9911 9909 9910 9911 9914 9919
9997 9989 9981 9972 9964 9958 9952 9945 9940 9934 9930 9926 9923 9920 9917 9915 9912 9911 9910 9909 9907 9905 9903 9902 9904 9907 9913
9988 9980 9972 9964 9958 9951 9945 9940 9934 9930 9926 9921 9919 9916 9912 9910 9909 9908 9907 9906 9904 9902 9900 9899 9900 9904 9909
9979 9971 9964 9958 9952 9946 9941 9937 9931 9925 9921 9917 9915 9912 9909 9907 9906 9907 9906 9903 9901 9900 9899 9898 9899 9902 9907
9969 9964 9958 9952 9947 9942 9937 9933 9927 9922 9918 9914 9912 9910 9908 9907 9906 9906 9905 9903 9901 9900 9901 9900 9900 9902 9907
9962 9957 9952 9947 9942 9938 9933 9929 9925 9921 9917 9913 9910 9908 9907 9907 9907 9907 9905 9903 9902 9903 9905 9905 9905 9907 9911
9955 9950 9946 9941 9938 9934 9930 9926 9922 9919 9915 9913 9909 9907 9906 9907 9907 9908 9906 9905 9905 9905 9907 9910 9912 9915 9918